Wind_Speed
19 19 20 20 20 20 21 21 21 22 22 23 24 24 24 24 24 24 23 23 24 24 25 27 28 28 28 28 28 29 29 30 30 31 31 31 31 31
19 20 21 21 21 21 22 23 23 23 24 25 25 26 26 26 25 25 25 25 26 27 27 28 28 29 30 30 31 31 32 32 33 33 33 33 33 32
20 21 21 21 22 23 23 23 24 25 25 26 27 27 28 28 28 28 28 28 30 30 30 30 31 31 33 33 33 33 33 34 34 34 34 35 34 35
21 21 21 22 22 23 23 24 24 25 25 26 26 27 28 29 29 28 29 30 31 31 32 33 34 35 35 35 36 36 35 35 34 34 35 35 36 37
21 21 22 22 23 23 24 24 24 25 26 27 28 27 27 28 28 29 31 31 32 33 33 33 34 35 36 36 36 35 34 35 35 35 36 36 37 38
21 22 23 24 25 25 25 25 26 26 27 28 28 27 28 28 29 31 32 33 34 34 34 34 35 35 36 36 36 36 35 36 36 37 37 38 38 39
21 21 22 23 23 24 24 26 26 27 27 28 28 28 29 30 31 32 32 32 33 33 34 34 35 36 36 35 35 36 36 37 37 38 38 39 40 40
22 22 22 23 24 25 25 25 26 26 27 27 27 28 30 31 32 32 32 32 32 32 33 33 34 35 35 35 35 36 36 37 37 38 40 41 42 43
21 22 23 24 24 25 25 25 25 26 28 28 28 29 31 32 33 32 32 33 33 33 34 34 35 36 36 36 37 37 38 38 40 40 41 43 43 44
23 23 24 24 25 25 26 26 27 27 28 28 28 29 30 31 32 33 33 34 33 33 34 34 35 36 36 37 37 38 38 39 41 41 42 43 43 44
24 24 24 25 25 25 26 26 27 28 28 28 29 29 30 31 32 33 33 33 33 34 35 35 36 36 37 37 38 39 40 40 40 41 41 42 42 43
24 24 25 25 26 27 27 27 27 27 28 28 29 29 30 31 32 33 34 34 34 35 35 36 36 37 37 38 39 40 40 40 40 41 41 42 43 44
25 25 26 26 27 27 27 27 27 28 28 29 29 30 31 32 33 34 34 34 34 35 35 35 36 36 37 37 38 39 39 40 40 41 42 42 43 44
25 26 27 27 27 28 28 28 29 29 30 30 31 32 33 33 33 33 33 33 33 34 34 34 35 35 36 37 37 38 39 39 40 40 41 41 41 42
25 26 26 27 27 28 29 29 30 30 31 32 32 33 33 33 33 33 34 34 34 34 34 34 35 35 36 36 37 38 38 38 38 39 39 39 39 39
26 26 26 27 28 29 30 31 31 32 32 32 33 33 33 33 33 33 34 34 34 34 34 35 35 35 35 36 36 36 36 36 37 36 36 36 37 37
27 27 28 29 29 30 31 31 31 32 32 32 33 33 33 33 33 33 33 34 34 35 35 35 35 35 35 35 35 35 35 35 35 34 34 34 34 34
27 28 29 30 31 31 31 31 32 32 32 32 32 32 32 33 33 34 35 35 35 35 35 35 35 35 35 35 35 35 35 34 34 33 33 33 33 33
28 29 30 30 30 31 31 32 32 32 32 32 32 33 34 34 34 35 35 35 35 35 35 35 35 35 35 35 34 34 34 34 33 33 33 32 32 32
29 29 30 30 31 31 31 31 31 32 32 32 33 33 34 34 34 35 35 35 35 35 35 35 35 34 34 34 34 33 33 33 32 32 31 31 31 31
29 30 30 31 31 31 31 32 32 32 33 33 33 34 34 34 34 34 34 34 33 34 34 34 33 33 32 32 31 31 31 31 31 31 31 31 31 31
29 30 31 31 31 31 32 32 33 33 33 33 34 34 34 34 34 33 33 32 32 32 32 32 31 31 30 29 29 29 29 29 29 29 29 30 30 30
29 30 31 31 32 32 33 33 34 34 33 34 34 33 33 33 32 32 32 32 31 31 30 29 29 29 29 28 28 28 28 28 28 28 27 28 28 28
Wind_Direction
268 270 272 273 273 275 277 277 277 275 276 277 278 279 279 278 277 278 280 281 279 277 275 274 273 274 274 273 272 273 273 274 276 276 277 277 278 277
271 271 272 272 273 275 276 276 276 275 274 276 277 279 280 280 280 280 280 281 281 279 279 277 275 274 274 274 273 273 274 274 275 276 277 276 277 276
272 274 274 273 275 276 277 278 278 277 277 276 277 278 278 281 282 281 280 281 280 280 279 278 277 276 276 275 275 273 274 275 276 276 276 276 275 275
274 276 275 274 274 277 278 278 280 280 279 279 280 278 278 279 280 280 280 280 280 279 278 278 277 276 275 276 275 274 275 276 276 276 277 277 276 276
275 276 276 276 278 278 279 280 280 281 279 278 279 279 279 280 279 279 280 280 280 280 280 279 279 279 278 278 276 276 276 277 277 278 278 277 277 277
278 278 279 279 279 279 279 280 280 281 281 280 279 277 279 281 281 281 281 281 281 281 280 280 281 281 281 280 279 279 278 278 278 279 278 278 278 279
280 281 281 281 282 284 282 282 282 283 284 284 281 280 280 281 283 284 283 284 283 282 282 282 282 281 282 283 282 281 279 279 279 279 280 280 280 279
282 281 282 284 286 285 286 287 286 287 286 287 286 283 283 284 285 285 285 285 283 282 280 281 282 282 283 283 282 281 280 279 279 280 281 281 281 281
285 284 285 286 287 289 289 290 290 289 289 287 286 285 285 285 285 287 289 290 288 286 285 285 284 284 284 284 283 282 282 282 282 282 282 282 283 283
285 285 287 287 287 289 290 290 290 290 290 290 290 289 288 288 289 289 289 291 290 290 289 287 286 286 285 284 284 283 283 283 283 284 284 284 284 284
287 287 289 290 290 291 292 292 292 291 292 292 293 292 292 291 291 291 292 292 292 291 290 289 288 287 287 286 285 285 286 286 286 286 286 286 286 285
290 290 290 290 290 292 293 294 293 293 294 294 294 294 295 294 294 294 294 294 293 292 291 290 289 288 287 287 287 286 286 286 286 286 287 287 287 287
291 291 290 291 291 293 294 295 295 295 295 296 296 296 296 296 296 296 295 295 294 293 292 292 291 291 290 289 288 287 287 288 288 288 288 288 288 288
291 291 292 292 293 293 294 295 296 296 296 296 297 296 296 297 297 296 295 296 296 295 294 293 294 294 293 293 292 292 290 290 290 290 289 289 290 290
294 296 297 296 296 296 297 299 299 299 299 298 299 298 297 297 296 296 296 296 297 297 296 296 296 295 295 295 295 294 293 292 290 290 291 291 291 292
297 297 298 299 298 298 298 299 300 300 299 299 299 299 298 297 297 297 297 297 297 297 298 298 297 297 296 296 295 294 293 293 293 292 292 291 290 290
297 297 297 297 298 299 299 299 299 299 299 300 300 299 298 297 297 297 298 298 297 297 297 297 297 297 296 296 296 295 295 294 294 293 293 293 293 292
297 297 297 298 298 300 300 300 300 300 300 300 301 300 299 299 299 299 299 299 299 298 297 297 297 297 297 296 296 296 296 295 293 293 292 292 293 294
298 299 300 301 301 301 301 301 300 301 300 300 301 301 300 299 299 299 300 300 300 299 299 298 298 298 298 297 296 295 295 294 294 294 293 293 294 294
300 300 301 301 302 301 301 301 302 302 301 301 301 301 301 300 299 300 301 301 301 301 300 299 299 298 298 298 297 296 294 294 294 294 294 293 294 295
299 300 300 301 302 302 301 302 301 301 301 301 302 302 301 301 301 301 301 302 302 301 301 301 300 299 299 299 298 298 297 296 295 295 295 295 295 295
300 301 301 302 303 303 303 303 303 302 302 303 303 302 301 300 301 301 301 302 302 302 302 302 302 301 300 300 299 299 299 299 297 296 295 295 296 296
302 302 302 302 302 303 304 304 304 303 303 303 303 302 302 302 302 301 302 302 303 303 303 303 303 303 301 301 300 300 301 301 301 300 298 297 296 296
Height
5886 5886 5885 5885 5885 5884 5884 5883 5883 5883 5882 5881 5880 5879 5878 5877 5876 5876 5875 5874 5873 5872 5871 5871 5869 5868 5868 5867 5866 5865 5864 5863 5862 5861 5860 5859 5858 5857
5881 5881 5880 5880 5880 5879 5879 5878 5877 5877 5876 5875 5874 5872 5871 5871 5870 5869 5868 5868 5867 5866 5865 5863 5862 5861 5860 5859 5858 5857 5856 5855 5854 5853 5852 5851 5850 5848
5876 5876 5875 5875 5874 5874 5873 5872 5871 5871 5870 5869 5867 5866 5865 5864 5863 5862 5861 5860 5859 5858 5857 5856 5854 5853 5852 5850 5849 5848 5847 5846 5845 5844 5842 5841 5840 5839
5872 5871 5871 5870 5869 5868 5867 5866 5865 5864 5863 5862 5861 5859 5858 5857 5856 5854 5853 5852 5851 5850 5848 5847 5846 5844 5843 5841 5840 5838 5837 5836 5835 5834 5833 5832 5831 5829
5867 5866 5865 5864 5863 5862 5861 5860 5859 5858 5857 5855 5854 5853 5851 5849 5848 5847 5845 5844 5842 5841 5839 5838 5836 5835 5833 5831 5830 5828 5827 5826 5825 5824 5822 5821 5820 5819
5861 5860 5860 5859 5858 5856 5855 5854 5852 5851 5849 5847 5846 5845 5844 5842 5840 5839 5837 5835 5834 5832 5830 5828 5826 5825 5823 5821 5820 5818 5817 5816 5814 5813 5812 5811 5809 5808
5856 5855 5854 5853 5852 5850 5849 5847 5845 5844 5842 5840 5839 5837 5836 5834 5832 5830 5828 5826 5824 5822 5820 5818 5816 5814 5813 5811 5809 5808 5807 5805 5804 5803 5801 5800 5798 5796
5851 5850 5849 5847 5846 5844 5843 5841 5839 5837 5836 5834 5832 5830 5828 5826 5824 5822 5819 5817 5815 5814 5811 5809 5806 5805 5803 5801 5799 5798 5796 5794 5793 5791 5790 5788 5786 5784
5845 5844 5843 5842 5840 5839 5837 5835 5832 5831 5829 5827 5825 5823 5821 5818 5816 5813 5811 5809 5806 5804 5801 5799 5797 5795 5793 5790 5789 5787 5785 5783 5781 5779 5777 5775 5773 5771
5840 5838 5837 5835 5834 5832 5830 5828 5826 5824 5821 5819 5817 5815 5813 5810 5808 5805 5802 5800 5797 5794 5792 5789 5787 5784 5782 5780 5778 5776 5774 5772 5770 5767 5765 5763 5760 5758
5834 5832 5831 5829 5828 5826 5824 5821 5819 5816 5814 5812 5809 5807 5804 5802 5799 5796 5793 5790 5787 5785 5782 5779 5777 5774 5771 5769 5767 5764 5762 5760 5757 5755 5752 5750 5747 5744
5828 5827 5825 5823 5821 5819 5817 5814 5811 5809 5807 5804 5801 5799 5796 5793 5790 5787 5784 5781 5778 5775 5772 5769 5766 5763 5761 5758 5755 5752 5750 5748 5745 5742 5739 5737 5734 5731
5822 5820 5818 5816 5814 5812 5809 5806 5804 5801 5798 5796 5793 5790 5787 5784 5781 5778 5775 5771 5768 5765 5762 5759 5756 5752 5749 5746 5744 5741 5738 5735 5732 5729 5726 5724 5721 5717
5815 5813 5811 5809 5807 5804 5802 5799 5796 5793 5790 5787 5784 5781 5778 5775 5772 5769 5765 5762 5758 5755 5752 5749 5745 5742 5739 5735 5732 5729 5726 5723 5720 5717 5714 5711 5708 5704
5809 5806 5804 5802 5799 5797 5794 5791 5788 5785 5782 5779 5776 5772 5769 5766 5762 5759 5756 5752 5749 5746 5742 5739 5735 5732 5728 5725 5722 5718 5715 5711 5708 5705 5702 5698 5695 5692
5802 5800 5798 5795 5792 5789 5786 5783 5780 5777 5774 5770 5767 5763 5760 5757 5753 5750 5746 5743 5740 5736 5733 5729 5725 5722 5718 5714 5711 5707 5704 5701 5697 5694 5690 5687 5684 5680
5796 5793 5790 5788 5785 5782 5778 5775 5772 5769 5765 5761 5758 5754 5751 5747 5744 5740 5737 5733 5729 5726 5722 5719 5715 5711 5708 5704 5701 5697 5694 5690 5687 5683 5680 5677 5673 5670
5789 5786 5783 5780 5776 5773 5770 5766 5763 5760 5756 5752 5749 5745 5741 5738 5734 5730 5726 5723 5719 5715 5711 5708 5704 5701 5697 5694 5690 5687 5683 5680 5677 5674 5670 5667 5664 5661
5781 5778 5775 5771 5768 5765 5761 5758 5754 5751 5747 5743 5740 5736 5732 5728 5724 5720 5716 5712 5708 5704 5701 5697 5693 5690 5686 5683 5680 5676 5673 5670 5667 5663 5660 5657 5654 5651
5773 5770 5766 5763 5759 5756 5752 5749 5745 5742 5738 5734 5730 5726 5722 5718 5714 5710 5706 5702 5698 5694 5690 5686 5683 5679 5676 5673 5669 5666 5663 5659 5657 5654 5651 5648 5645 5642
5764 5761 5758 5755 5751 5747 5744 5740 5736 5732 5728 5724 5720 5716 5712 5708 5704 5699 5695 5691 5688 5684 5680 5677 5673 5669 5666 5663 5659 5656 5653 5650 5647 5644 5641 5639 5636 5633
5756 5753 5750 5746 5742 5739 5735 5731 5727 5723 5719 5715 5710 5706 5702 5698 5694 5690 5685 5682 5678 5674 5670 5667 5663 5660 5657 5654 5650 5647 5644 5641 5638 5635 5632 5630 5627 5624
5748 5744 5741 5737 5734 5730 5726 5722 5717 5713 5709 5705 5700 5696 5692 5688 5684 5680 5676 5672 5669 5665 5661 5658 5654 5651 5648 5645 5642 5639 5636 5632 5629 5626 5624 5621 5618 5615